Location: ??
(35.5052°N, 139.7262°E)
Time: 09:33:17
(UTC+00:00)

Cosmos 1932 - Visible Passes

Search period start: 16 October 2021 00:00
Search period end: 26 October 2021 00:00
Orbit: 943 x 986 km, 65.0° (Epoch: 16 October)

Date Brightness Start Highest point End Pass type
(mag) Time Alt. Az. Time Alt. Az. Time Alt. Az.
16 Oct 6.8 11:25:24 10° NNW 11:26:07 13° NNW 11:26:07 13° NNW visible
17 Oct 6.5 10:02:08 10° NNE 10:03:29 12° NNE 10:03:29 12° NNE visible
17 Oct 7.0 11:47:28 10° NNW 11:47:54 12° NNW 11:47:54 12° NNW visible
18 Oct 6.3 10:23:12 10° N 10:25:19 18° NNE 10:25:19 18° NNE visible
19 Oct 6.2 10:44:57 10° NNW 10:47:11 22° N 10:47:11 22° N visible
20 Oct 6.2 09:21:36 10° N 09:24:43 14° NE 09:24:43 14° NE visible
20 Oct 6.3 11:07:01 10° NNW 11:09:09 23° NNW 11:09:09 23° NNW visible
21 Oct 5.7 09:42:43 10° N 09:46:43 23° NE 09:46:43 23° NE visible
21 Oct 6.6 11:29:27 10° NW 11:31:10 19° NW 11:31:10 19° NW visible
22 Oct 5.2 10:04:28 10° NNW 10:08:50 36° NNE 10:08:50 36° NNE visible
22 Oct 7.0 11:52:24 10° NW 11:53:17 14° WNW 11:53:17 14° WNW visible
23 Oct 6.1 08:41:04 10° N 08:44:19 14° NE 08:46:37 12° ENE visible
23 Oct 5.0 10:26:35 10° NNW 10:31:03 49° NNW 10:31:03 49° NNW visible
24 Oct 5.5 09:02:15 10° N 09:07:16 25° NE 09:08:57 22° ENE visible
24 Oct 5.4 10:49:02 10° NW 10:53:25 43° WNW 10:53:25 43° WNW visible
25 Oct 4.8 09:24:01 10° NNW 09:29:57 43° NE 09:31:29 37° E visible
25 Oct 6.2 11:12:00 10° NW 11:15:57 26° W 11:15:57 26° W visible
